Galveston, TX

9:00 PM CDT on July 25, 2017 (GMT -0500)
Scholes International At Galveston

Weather History for KGLS - May, 2014

Change the Weather History Date:

Friday, May 16, 2014

  Actual Average Record
Temperature  
Mean Temperature 74 °F 78 °F  
Max Temperature 80 °F 83 °F 90 °F (1875)
Min Temperature 68 °F 72 °F 56 °F (1945)
Degree Days  
Heating Degree Days 0 0  
Month to date heating degree days 0 0  
Since 1 July heating degree days 1425 1009  
Cooling Degree Days 9 13  
Month to date cooling degree days 129 176  
Year to date cooling degree days 317 419  
Growing Degree Days 24 (Base 50)    
Moisture  
Dew Point 58 °F    
Average Humidity 59    
Maximum Humidity 73    
Minimum Humidity 45    
Precipitation  
Precipitation 0.00 in 0.09 in 2.53 in (1969)
Month to date precipitation 0.40 1.80  
Year to date precipitation 5.37 14.78  
Snow  
Snow 0.00 in - - ()
Month to date snowfall 0.0  
Since 1 July snowfall T 0.0  
Snow Depth 0.00 in    
Sea Level Pressure  
Sea Level Pressure 30.15 in    
Wind  
Wind Speed 17 mph (SSW)    
Max Wind Speed 24 mph    
Max Gust Speed 32 mph    
Visibility 10 miles    
Events      
T = Trace of Precipitation, MM = Missing Value Source: NWS Daily Summary

Daily Weather History Graph

Daily Weather History Graph

Search for Another Location

Airport or City:

Trip Planner

Search our weather history database for the weather conditions in past years. The results will help you decide how hot, cold, wet, or windy it might be!

Date:

Astronomy

May. 16, 2014 Rise Set
Actual Time 6:26 AM CDT 8:05 PM CDT
Civil Twilight 6:00 AM CDT 8:31 PM CDT
Nautical Twilight 5:29 AM CDT 9:02 PM CDT
Astronomical Twilight 4:57 AM CDT 9:35 PM CDT
Moon 10:12 PM CDT (5/16) 8:09 AM CDT (5/16)
Length of Visible Light 14h 30m
Length of Day
13h 38m
Waning Gibbous, 95% of the Moon is Illuminated
May 16
Waning Gibbous
May 21
Last Quarter
May 28
New
Jun 5
First Quarter
Jun 12
Full

Hourly Weather History & Observations

Time (CDT) Temp. Dew Point Humidity Pressure Visibility Wind Dir Wind Speed Gust Speed Precip Events Conditions
12:52 AM 69.8 °F 57.2 °F 64% 30.19 in 10.0 mi SSW 12.7 mph 21.9 mph N/A   Clear
1:52 AM 69.1 °F 57.0 °F 65% 30.18 in 10.0 mi SSW 12.7 mph - N/A   Clear
2:52 AM 69.8 °F 57.2 °F 64% 30.16 in 10.0 mi SSW 13.8 mph 23.0 mph N/A   Clear
3:52 AM 69.1 °F 57.0 °F 65% 30.15 in 10.0 mi SSW 17.3 mph - N/A   Clear
4:52 AM 69.1 °F 57.9 °F 68% 30.15 in 10.0 mi SSW 13.8 mph 23.0 mph N/A   Clear
5:52 AM 69.1 °F 57.9 °F 68% 30.16 in 10.0 mi SSW 12.7 mph - N/A   Clear
6:52 AM 69.1 °F 57.9 °F 68% 30.16 in 10.0 mi SSW 16.1 mph 23.0 mph N/A   Clear
7:52 AM 72.0 °F 57.9 °F 61% 30.17 in 10.0 mi SSW 15.0 mph - N/A   Clear
8:52 AM 73.9 °F 55.0 °F 52% 30.20 in 10.0 mi SSW 18.4 mph 26.5 mph N/A   Clear
9:52 AM 75.0 °F 57.0 °F 53% 30.20 in 10.0 mi SW 20.7 mph 26.5 mph N/A   Clear
10:52 AM 77.0 °F 59.0 °F 54% 30.20 in 10.0 mi SW 18.4 mph 27.6 mph N/A   Clear
11:52 AM 77.0 °F 60.1 °F 56% 30.19 in 10.0 mi SSW 21.9 mph 31.1 mph N/A   Clear
12:52 PM 78.1 °F 59.0 °F 52% 30.18 in 10.0 mi SSW 23.0 mph 29.9 mph N/A   Clear
1:52 PM 78.1 °F 55.9 °F 46% 30.17 in 10.0 mi SSW 21.9 mph - N/A   Clear
2:52 PM 78.8 °F 59.0 °F 51% 30.14 in 10.0 mi SSW 18.4 mph - N/A   Clear
3:52 PM 78.1 °F 57.0 °F 48% 30.12 in 10.0 mi SSW 19.6 mph - N/A   Clear
4:52 PM 77.0 °F 55.9 °F 48% 30.10 in 10.0 mi SSW 20.7 mph - N/A   Clear
5:52 PM 75.9 °F 57.9 °F 54% 30.09 in 10.0 mi SSW 15.0 mph - N/A   Clear
6:52 PM 73.9 °F 57.9 °F 57% 30.09 in 10.0 mi SSW 15.0 mph - N/A   Clear
7:52 PM 72.0 °F 57.9 °F 61% 30.09 in 10.0 mi South 15.0 mph - N/A   Clear
8:52 PM 71.1 °F 59.0 °F 66% 30.10 in 10.0 mi South 12.7 mph - N/A   Clear
9:52 PM 69.8 °F 59.0 °F 68% 30.11 in 10.0 mi South 12.7 mph - N/A   Clear
10:52 PM 70.0 °F 60.1 °F 71% 30.11 in 10.0 mi South 13.8 mph - N/A   Clear
11:52 PM 70.0 °F 60.1 °F 71% 30.11 in 10.0 mi South 19.6 mph - N/A   Clear